This demonstration page uses our WeatherBlox Daily Observations layout. Learn more.

Hourly Observations for October 7, 2015

Temp ( °F °C ) Dew Point ( °F °C ) Humidity (%) Winds ( mph kmh ) Pressure ( in mb ) Visibility ( mi km ) Precip ( " mm )
12:15 am 00:15 Cloudy 62 16.8 55 13 78 78 E 5 7 30.09 1019 10 16.0934 0 0
12:35 am 00:35 Cloudy 62 16.7 55 13 79 79 E 5 7 30.09 1019 10 16.0934 0 0
12:55 am 00:55 Cloudy 62 16.5 55 13 80 80 E 3 6 30.09 1019 10 16.0934 0 0
1:15 am 01:15 Cloudy 62 16.4 56 13.1 81 81 Calm 30.09 1019 10 16.0934 0 0
1:35 am 01:35 Cloudy 61 16.3 56 13.1 81 81 E 3 6 30.09 1019 10 16.0934 0 0
1:55 am 01:55 Cloudy 61 16.2 56 13.1 82 82 ESE 5 7 30.09 1019 10 16.0934 0 0
2:15 am 02:15 Cloudy 61 16.2 56 13.1 82 82 SE 3 6 30.09 1019 10 16.0934 0 0
2:35 am 02:35 Cloudy 61 16.1 55 13 82 82 Calm 30.09 1019 10 16.0934 0 0
2:55 am 02:55 Cloudy 61 16.3 55 13 81 81 Calm 30.09 1019 10 16.0934 0 0
3:15 am 03:15 Cloudy 61 16 55 13 83 83 Calm 30.09 1019 10 16.0934 0 0
3:35 am 03:35 Cloudy 61 15.9 55 13 83 83 Calm 30.09 1019 10 16.0934 0 0
3:55 am 03:55 Cloudy 60 15.7 55 13 84 84 Calm 30.09 1019 10 16.0934 0 0
4:15 am 04:15 Cloudy 60 15.7 56 13.1 85 85 Calm 30.09 1019 10 16.0934 0 0
4:35 am 04:35 Cloudy 60 15.5 56 13.1 86 86 Calm 30.09 1019 10 16.0934 0 0
4:55 am 04:55 Cloudy 60 15.8 56 13.1 84 84 Calm 30.09 1019 10 16.0934 0 0
5:15 am 05:15 Cloudy 60 15.3 56 13.1 87 87 Calm 30.09 1019 10 16.0934 0 0
5:35 am 05:35 Cloudy 59 15.1 56 13.1 88 88 Calm 30.09 1019 10 16.0934 0 0
5:55 am 05:55 Cloudy 59 15.1 56 13.1 88 88 Calm 30.09 1019 10 16.0934 0 0
6:15 am 06:15 Cloudy 59 15 55 13 88 88 Calm 30.09 1019 10 16.0934 0 0
6:35 am 06:35 Cloudy 59 15.1 56 13.1 88 88 Calm 30.09 1019 10 16.0934 0 0
6:55 am 06:55 Cloudy 59 15 56 13.1 89 89 Calm 30.09 1019 10 16.0934 0 0
7:15 am 07:15 Cloudy 59 15.1 55 13 87 87 SE 3 6 30.09 1019 10 16.0934 0 0
7:35 am 07:35 Mostly Cloudy 58 14.6 55 12.6 88 88 Calm 30.09 1019 10 16.0934 0 0
7:55 am 07:55 Sunny 58 14.3 55 12.5 89 89 Calm 30.09 1019 10 16.0934 0 0
8:15 am 08:15 Sunny 58 14.5 55 12.5 88 88 Calm 30.12 1020 10 16.0934 0 0
8:35 am 08:35 Sunny 58 14.6 55 12.6 88 88 Calm 30.12 1020 10 16.0934 0 0
8:55 am 08:55 Sunny 60 15.6 55 13 85 85 S 3 6 30.12 1020 10 16.0934 0 0
9:15 am 09:15 Sunny 62 16.9 55 12.9 77 77 S 5 7 30.12 1020 10 16.0934 0 0
9:35 am 09:35 Partly Cloudy 65 18.4 55 12.9 70 70 S 5 7 30.09 1019 10 16.0934 0 0
9:55 am 09:55 Cloudy 65 18.5 54 12.1 66 66 S 6 9 30.09 1019 10 16.0934 0 0
10:15 am 10:15 Cloudy 65 18.5 54 12.1 66 66 S 5 7 30.09 1019 10 16.0934 0 0
10:35 am 10:35 Cloudy 66 19.1 53 11.6 62 62 SSW 12 19 30.09 1019 10 16.0934 0 0
10:55 am 10:55 Cloudy 66 19.1 53 11.6 62 62 SSW 6 9 30.09 1019 10 16.0934 0 0
11:15 am 11:15 Cloudy 67 19.5 53 11.6 60 60 SSW 6 9 30.09 1019 10 16.0934 0 0
11:35 am 11:35 Cloudy 67 19.5 53 11.4 60 60 SSW 7 11 30.09 1019 10 16.0934 0 0
11:55 am 11:55 Cloudy 67 19.5 52 11.1 58 58 S 7 11 30.09 1019 10 16.0934 0 0
12:15 pm 12:15 Cloudy 68 19.9 52 11.1 57 57 S 8 13 30.09 1019 10 16.0934 0 0
12:35 pm 12:35 Cloudy 68 20 52 11 56 56 S 7 11 30.09 1019 10 16.0934 0 0
12:55 pm 12:55 Cloudy 68 19.8 52 11.1 57 57 S 7 11 30.09 1019 10 16.0934 0 0
1:15 pm 13:15 Cloudy 70 21 52 10.9 53 53 S 10 17 30.03 1017 10 16.0934 0 0
1:35 pm 13:35 Mostly Cloudy 71 21.8 52 11 50 50 S 13 20 30.03 1017 10 16.0934 0 0
1:55 pm 13:55 Partly Cloudy 73 22.5 51 10.5 47 47 S 14 22 30.03 1017 10 16.0934 0 0
2:15 pm 14:15 Partly Cloudy 73 22.5 51 10.6 47 47 S 14 22 30.03 1017 10 16.0934 0 0
2:35 pm 14:35 Partly Cloudy 74 23.5 52 11 45 45 S 13 20 30.03 1017 10 16.0934 0 0
2:55 pm 14:55 Mostly Cloudy 75 23.7 52 11.3 46 46 S 16 26 30.03 1017 10 16.0934 0 0
3:15 pm 15:15 Mostly Cloudy 75 23.7 52 11.1 45 45 S 16 26 29.97 1015 10 16.0934 0 0
3:35 pm 15:35 Partly Cloudy 76 24.4 52 11 43 43 S 14 22 29.97 1015 10 16.0934 0 0
3:55 pm 15:55 Mostly Cloudy 76 24.3 52 10.9 43 43 S 16 26 29.94 1014 10 16.0934 0 0
4:15 pm 16:15 Partly Cloudy 74 23.6 52 11.3 46 46 S 15 24 29.94 1014 10 16.0934 0 0
4:35 pm 16:35 Partly Cloudy 74 23.3 54 12 49 49 S 12 19 29.97 1015 10 16.0934 0 0
4:55 pm 16:55 Sunny 74 23.6 54 12.4 50 50 S 13 20 29.91 1013 10 16.0934 0 0
5:15 pm 17:15 Sunny 74 23.4 54 12.2 49 49 S 17 28 29.94 1014 10 16.0934 0 0
5:35 pm 17:35 Sunny 74 23.1 54 12.1 50 50 S 18 30 29.94 1014 10 16.0934 0 0
5:55 pm 17:55 Sunny 73 23 54 12.3 51 51 S 16 26 29.94 1014 10 16.0934 0 0
6:15 pm 18:15 Sunny 72 22 54 12.3 54 54 S 15 24 29.94 1014 10 16.0934 0 0
6:35 pm 18:35 Sunny 71 21.6 55 12.5 56 56 S 8 13 29.94 1014 10 16.0934 0 0
6:55 pm 18:55 Sunny 70 21.1 55 12.6 58 58 SSE 6 9 29.94 1014 10 16.0934 0 0
7:15 pm 19:15 Clear 68 20.1 55 12.8 63 63 SSE 6 9 29.94 1014 10 16.0934 0 0
7:35 pm 19:35 Clear 67 19.3 55 12.8 66 66 SSE 10 17 29.97 1015 10 16.0934 0 0
7:55 pm 19:55 Clear 66 19.1 56 13.2 69 69 SSE 9 15 29.97 1015 10 16.0934 0 0
8:15 pm 20:15 Clear 65 18.4 56 13.3 72 72 S 9 15 30 1016 10 16.0934 0 0
8:35 pm 20:35 Clear 64 18 56 13.5 75 75 S 7 11 30 1016 10 16.0934 0 0
8:55 pm 20:55 Clear 64 17.5 56 13.5 78 78 S 9 15 30 1016 10 16.0934 0 0
9:15 pm 21:15 Clear 63 17 56 13.5 80 80 S 7 11 30 1016 10 16.0934 0 0
9:35 pm 21:35 Clear 63 17.1 56 13.6 80 80 S 9 15 30 1016 10 16.0934 0 0
9:55 pm 21:55 Clear 63 17 56 13.6 81 81 S 10 17 30 1016 10 16.0934 0 0
10:15 pm 22:15 Clear 62 16.7 56 13.6 82 82 S 9 15 30 1016 10 16.0934 0 0
10:35 pm 22:35 Clear 62 16.5 56 13.6 83 83 S 9 15 30 1016 10 16.0934 0 0
10:55 pm 22:55 Clear 61 16.1 56 13.5 85 85 SSW 9 15 30.03 1017 10 16.0934 0 0
11:15 pm 23:15 Clear 61 16 56 13.6 86 86 S 9 15 30.03 1017 10 16.0934 0 0
11:35 pm 23:35 Clear 60 15.7 56 13.6 87 87 S 8 13 30.03 1017 10 16.0934 0 0
11:55 pm 23:55 Clear 60 15.5 56 13.6 89 89 SSW 7 11 30.03 1017 10 16.0934 0 0

Powered by AerisWeather